User: anonymous
Location: Unspecified
(0.0000°N, 0.0000°E)
Time: 09:04:50
(UTC+02:00)
Language:

Cosmos 407 Rocket - Orbit

View from above orbital plane
View from above orbital plane
View from above satellite
View from above satellite

Ground track
Ground track

The orbit data is extracted from the following two-line orbital elements,

1 05175U 71035B   14107.65317028  .00000252  00000-0  92645-4 0  3857
2 05175 074.0486 176.6681 0031321 311.0776 048.7672 14.37444358248741
Epoch (UTC): 17 April 2014 15:40:33
Eccentricity: 0.0031321
inclination: 74.0486°
perigee height: 744 km
apogee height: 789 km
right ascension of ascending node: 176.6681°
argument of perigee: 311.0776°
revolutions per day: 14.37444358
mean anomaly at epoch: 48.7672°
orbit number at epoch: 24874

The dashed part of the orbit path shows where the satellite is in the earth's shadow,  

DLR